Location: Albuquerque Trailhead
(34.7934°N, 106.3736°W)
Time: 11:04:17
(UTC+00:00)

Exosat Rocket - Pass Details

Date: 26 October 2021
Orbit: 759 x 2516 km, 72.3° (Epoch: 08 December)

Event Time Altitude Azimuth Distance (km) Brightness Sun altitude
Exits shadow 11:04:35 - 195° (SSW) 4,139 7.1 -28.6°
Reaches altitude 10° 11:06:41 10° 194° (SSW) 3,455 6.7 -28.2°
Maximum altitude 11:15:25 85° 106° (ESE) 1,801 5.2 -26.4°
Drops below altitude 10° 11:28:02 10° 21° (NNE) 4,851 7.8 -23.8°
Sets 11:32:02 0° 21° (NNE) 6,015 8.4 -23.0°
